Weather History for Durant, OK

Change the Weather History Date:

Wednesday, January 23, 2013

  Actual Average (KADM) Record (KADM)
Temperature  
Mean Temperature 53 °F -  
Max Temperature 73 °F 51 °F 75 °F (2009)
Min Temperature 33 °F 32 °F 14 °F (2003)
Degree Days  
Heating Degree Days 12    
Growing Degree Days 3 (Base 50)    
Moisture  
Dew Point 44 °F    
Average Humidity 77    
Maximum Humidity 100    
Minimum Humidity 46    
Precipitation  
Precipitation 0.00 in - - ()
Sea Level Pressure  
Sea Level Pressure 30.20 in    
Wind  
Wind Speed 6 mph (SSE)    
Max Wind Speed 12 mph    
Max Gust Speed -    
Visibility 10 miles    
Events      
Averages and records for this station are not official NWS values.
T = Trace of Precipitation, MM = Missing Value Source: NWS Daily Summary

Daily Weather History Graph

Daily Weather History Graph

Search for Another Location

Airport:

Trip Planner

Search our weather history database for the weather conditions in past years. The results will help you decide how hot, cold, wet, or windy it might be!

Date:

Astronomy

Jan. 23, 2013 Rise Set
Actual Time 7:27 AM CST 5:47 PM CST
Civil Twilight 7:01 AM CST 6:14 PM CST
Nautical Twilight 6:30 AM CST 6:44 PM CST
Astronomical Twilight 6:00 AM CST 7:14 PM CST
Moon 3:01 PM CST (1/23) 4:37 AM CST (1/23)
Length of Visible Light 11h 13m
Length of Day
10h 19m
Waxing Gibbous, 89% of the Moon is Illuminated
Jan 23
Waxing Gibbous
Jan 26
Full
Feb 3
Last Quarter
Feb 10
New
Feb 17
First Quarter

Hourly Weather History & Observations

Time (CST) Temp. Windchill Dew Point Humidity Pressure Visibility Wind Dir Wind Speed Gust Speed Precip Events Conditions
12:15 AM 41.0 °F 38.0 °F 35.6 °F 81% 30.23 in 10.0 mi SE 4.6 mph - N/A   Clear
12:35 AM 41.0 °F 38.0 °F 35.6 °F 81% 30.23 in 10.0 mi ESE 4.6 mph - N/A   Clear
12:55 AM 41.0 °F 38.0 °F 35.6 °F 81% 30.23 in 10.0 mi ESE 4.6 mph - N/A   Clear
1:15 AM 37.4 °F 32.8 °F 35.6 °F 93% 30.23 in 10.0 mi East 5.8 mph - N/A   Clear
1:35 AM 39.2 °F 35.0 °F 35.6 °F 87% 30.23 in 10.0 mi East 5.8 mph - N/A   Clear
1:55 AM 37.4 °F 32.8 °F 35.6 °F 93% 30.23 in 10.0 mi ENE 5.8 mph - N/A   Clear
2:15 AM 37.4 °F 32.8 °F 33.8 °F 87% 30.22 in 10.0 mi East 5.8 mph - N/A   Clear
2:35 AM 37.4 °F 32.8 °F 33.8 °F 87% 30.23 in 10.0 mi East 5.8 mph - N/A   Clear
2:55 AM 37.4 °F 32.1 °F 33.8 °F 87% 30.24 in 10.0 mi ENE 6.9 mph - N/A   Clear
3:15 AM 37.4 °F 32.8 °F 33.8 °F 87% 30.25 in 10.0 mi East 5.8 mph - N/A   Clear
3:35 AM 37.4 °F 33.8 °F 33.8 °F 87% 30.25 in 10.0 mi ESE 4.6 mph - N/A   Mostly Cloudy
3:55 AM 39.2 °F 34.2 °F 33.8 °F 81% 30.24 in 10.0 mi SE 6.9 mph - N/A   Mostly Cloudy
4:15 AM 37.4 °F 32.8 °F 33.8 °F 87% 30.22 in 10.0 mi SSE 5.8 mph - N/A   Scattered Clouds
4:35 AM 37.4 °F 34.9 °F 32.0 °F 81% 30.22 in 10.0 mi SSE 3.5 mph - N/A   Clear
4:55 AM 35.6 °F 29.2 °F 32.0 °F 87% 30.22 in 10.0 mi SSE 8.1 mph - N/A   Clear
5:15 AM 35.6 °F 32.8 °F 32.0 °F 87% 30.23 in 10.0 mi ESE 3.5 mph - N/A   Clear
5:35 AM 35.6 °F 32.8 °F 32.0 °F 87% 30.23 in 10.0 mi ESE 3.5 mph - N/A   Clear
5:55 AM 35.6 °F 32.8 °F 32.0 °F 87% 30.24 in 10.0 mi East 3.5 mph - N/A   Clear
6:15 AM 35.6 °F 32.8 °F 32.0 °F 87% 30.24 in 10.0 mi ESE 3.5 mph - N/A   Clear
6:35 AM 35.6 °F 32.8 °F 32.0 °F 87% 30.24 in 10.0 mi SE 3.5 mph - N/A   Clear
6:55 AM 33.8 °F 30.8 °F 32.0 °F 93% 30.24 in 10.0 mi SE 3.5 mph - N/A   Clear
7:15 AM 33.8 °F 30.8 °F 32.0 °F 93% 30.24 in 10.0 mi SE 3.5 mph - N/A   Clear
7:35 AM 33.8 °F 29.6 °F 32.0 °F 93% 30.25 in 10.0 mi East 4.6 mph - N/A   Clear
7:55 AM 35.6 °F 31.7 °F 33.8 °F 93% 30.24 in 10.0 mi SE 4.6 mph - N/A   Clear
8:15 AM 37.4 °F - 35.6 °F 93% 30.25 in 10.0 mi Calm Calm - N/A   Mostly Cloudy
8:35 AM 39.2 °F 37.0 °F 35.6 °F 87% 30.25 in 10.0 mi ESE 3.5 mph - N/A   Overcast
8:55 AM 41.0 °F 39.0 °F 37.4 °F 87% 30.25 in 10.0 mi SE 3.5 mph - N/A   Overcast
9:15 AM 42.8 °F - 37.4 °F 81% 30.26 in 10.0 mi Calm Calm - N/A   Overcast
9:35 AM 44.6 °F - 41.0 °F 87% 30.26 in 10.0 mi Calm Calm - N/A   Overcast
9:55 AM 48.2 °F - 42.8 °F 82% 30.26 in 10.0 mi South 4.6 mph - N/A   Scattered Clouds
10:15 AM 51.8 °F - 44.6 °F 76% 30.26 in 10.0 mi SSW 6.9 mph - N/A   Clear
10:35 AM 55.4 °F - 46.4 °F 72% 30.26 in 10.0 mi SSW 5.8 mph - N/A   Clear
10:55 AM 59.0 °F - 46.4 °F 63% 30.25 in 10.0 mi SSW 9.2 mph - N/A   Clear
11:15 AM 62.6 °F - 48.2 °F 59% 30.26 in 10.0 mi SW 9.2 mph - N/A   Clear
11:35 AM 62.6 °F - 50.0 °F 63% 30.26 in 10.0 mi SW 9.2 mph - N/A   Clear
11:55 AM 64.4 °F - 50.0 °F 59% 30.25 in 10.0 mi SW 9.2 mph - N/A   Clear
12:15 PM 66.2 °F - 51.8 °F 60% 30.22 in 10.0 mi SW 6.9 mph - N/A   Scattered Clouds
12:35 PM 68.0 °F - 51.8 °F 56% 30.21 in 10.0 mi SW 5.8 mph - N/A   Clear
12:55 PM 69.8 °F - 51.8 °F 53% 30.20 in 10.0 mi SSW 8.1 mph - N/A   Clear
1:15 PM 69.8 °F - 51.8 °F 53% 30.19 in 10.0 mi South 9.2 mph - N/A   Clear
1:35 PM 69.8 °F - 51.8 °F 53% 30.18 in 10.0 mi SW 8.1 mph - N/A   Clear
1:55 PM 71.6 °F - 51.8 °F 50% 30.17 in 10.0 mi South 5.8 mph - N/A   Clear
2:15 PM 71.6 °F - 51.8 °F 50% 30.17 in 10.0 mi SSW 10.4 mph - N/A   Clear
2:35 PM 71.6 °F - 51.8 °F 50% 30.16 in 10.0 mi SW 10.4 mph - N/A   Clear
2:55 PM 71.6 °F - 51.8 °F 50% 30.16 in 10.0 mi SSW 10.4 mph - N/A   Clear
3:15 PM 71.6 °F - 51.8 °F 50% 30.16 in 10.0 mi SSW 4.6 mph - N/A   Clear
3:35 PM 73.4 °F - 51.8 °F 47% 30.16 in 10.0 mi SW 10.4 mph - N/A   Clear
4:15 PM 71.6 °F - 50.0 °F 46% 30.14 in 10.0 mi SW 11.5 mph - N/A   Clear
4:35 PM 71.6 °F - 51.8 °F 50% 30.13 in 10.0 mi SSW 10.4 mph - N/A   Clear
4:55 PM 71.6 °F - 51.8 °F 50% 30.13 in 10.0 mi SSW 10.4 mph - N/A   Clear
5:15 PM 69.8 °F - 51.8 °F 53% 30.14 in 10.0 mi SW 8.1 mph - N/A   Clear
5:35 PM 68.0 °F - 51.8 °F 56% 30.14 in 10.0 mi SW 6.9 mph - N/A   Clear
5:55 PM 64.4 °F - 51.8 °F 64% 30.14 in 10.0 mi South 6.9 mph - N/A   Clear
6:15 PM 62.6 °F - 50.0 °F 63% 30.14 in 10.0 mi South 6.9 mph - N/A   Clear
6:35 PM 59.0 °F - 51.8 °F 77% 30.14 in 10.0 mi South 8.1 mph - N/A   Clear
6:55 PM 59.0 °F - 51.8 °F 77% 30.15 in 10.0 mi SSE 6.9 mph - N/A   Clear
7:15 PM 59.0 °F - 51.8 °F 77% 30.15 in 10.0 mi SE 4.6 mph - N/A   Clear
7:35 PM 55.4 °F - 51.8 °F 88% 30.16 in 10.0 mi SSE 5.8 mph - N/A   Clear
7:55 PM 55.4 °F - 50.0 °F 82% 30.16 in 10.0 mi SSE 4.6 mph - N/A   Clear
8:15 PM 55.4 °F - 51.8 °F 88% 30.15 in 10.0 mi SSE 8.1 mph - N/A   Clear
8:35 PM 55.4 °F - 51.8 °F 88% 30.15 in 10.0 mi South 5.8 mph - N/A   Clear
8:55 PM 55.4 °F - 51.8 °F 88% 30.16 in 10.0 mi SSE 3.5 mph - N/A   Clear
9:15 PM 53.6 °F - 51.8 °F 94% 30.15 in 10.0 mi SSE 6.9 mph - N/A   Clear
9:35 PM 53.6 °F - 51.8 °F 94% 30.16 in 10.0 mi South 5.8 mph - N/A   Clear
9:55 PM 53.6 °F - 51.8 °F 94% 30.16 in 10.0 mi South 5.8 mph - N/A   Clear
10:15 PM 53.6 °F - 50.0 °F 88% 30.15 in 10.0 mi SSE 6.9 mph - N/A   Clear
10:35 PM 51.8 °F - 50.0 °F 94% 30.15 in 10.0 mi SE 3.5 mph - N/A   Clear
11:15 PM 51.8 °F - 50.0 °F 94% 30.16 in 10.0 mi SE 4.6 mph - N/A   Clear
11:35 PM 51.8 °F - 50.0 °F 94% 30.16 in 10.0 mi SE 3.5 mph - N/A   Clear
11:55 PM 50.0 °F - 50.0 °F 100% 30.15 in 7.0 mi SE 3.5 mph - N/A   Clear